Terminal Aerodrome Forecast
Issued by NWS Billings, MT

Home | Current Version | Previous Version | Graphics & Text | Print | Product List | Glossary On
Versions: 1 2 3 4 5 6 7 8 9 10 11 12 13 14 15 16 17 18 19 20 21 22 23
000
FTUS45 KBYZ 190520
TAFMLS
TAF
KMLS 190520Z 1906/2006 18006KT P6SM FEW060 BKN080
     FM191900 16006KT P6SM FEW100 SCT200=

USA.gov is the U.S. government's official web portal to all federal, state and local government web resources and services.